Regional Weather Roundup
Issued by NWS Binghamton, NY

Home | Current Version | Previous Version | Text Only | Print | Product List | Glossary On
Versions: 1 2 3 4 5 6 7 8 9 10 11 12 13 14 15 16 17 18 19 20 21 22 23 24 25 26 27 28 29 30 31 32 33 34 35 36 37 38 39 40 41 42 43 44 45 46 47 48 49 50
000
ASUS41 KBGM 221510
RWRBGM
RWRBGM
BINGHAMTON REGIONAL WEATHER ROUNDUP
NATIONAL WEATHER SERVICE BINGHAMTON NY
1100 AM EDT FRI AUG 22 2014

Note: "fair" indicates few or no clouds below 12,000 feet with no
significant weather and/or obstructions to visibility.

* = Station(s) that does not report precipitation, such as rain,
snow, etc, also no thunder or fog.

!NYZ009-015>018-022>025-036-037-044>046-055>057-062-221600
...CENTRAL NEW YORK...

CITY           SKY/WX    TMP DP  RH WIND       PRES   REMARKS
BINGHAMTON     FOG       64  64 100 SE6       30.05F VSB 3/4
CORTLAND       CLOUDY    68  66  94 E6        30.05S
DANSVILLE      CLOUDY    73  66  78 NW6       30.01S
ELMIRA         MOSUNNY   72  67  84 SW6       30.02S
ITHACA         PTSUNNY   76  67  73 CALM      30.04S
HAMILTON       CLOUDY    73  66  78 S6        30.04S
MONTICELLO     CLOUDY    63  61  94 S6        30.10R
NORWICH        CLOUDY    70  64  83 SW3       30.05S
ONEONTA        CLOUDY    66  63  88 SW3       30.07S
PENN YAN       MOSUNNY   75  66  73 CALM      30.02S
ROME           CLOUDY    70  66  87 E5        30.03S
SIDNEY         CLOUDY    70  68  94 CALM      30.05S
SYRACUSE       CLOUDY    71  67  87 CALM      30.01R
$$

!PAZ038>040-043-044-047-048-072-221600
...NORTHEAST PENNSYLVANIA...

CITY           SKY/WX    TMP DP  RH WIND       PRES   REMARKS
HAZLETON       CLOUDY    64  63  94 E5        30.10F FOG
SCRANTON       CLOUDY    72  63  73 W3        30.05S
TOWANDA*       PTSUNNY   72  70  94 N3        30.04S
$$
&&
KEY
WCI = WIND CHILL INDEX
VSB = VISIBILITY
HX  = HEAT INDEX
$$


USA.gov is the U.S. government's official web portal to all federal, state and local government web resources and services.